Location: Aalsum
(53.3404°N, 6.0062°E)
Time: 05:18:53
(UTC+00:00)

COSMO-SKYMED 1 - Pass Details

Date: 28 January 2023
Orbit: 621 x 623 km, 97.9° (Epoch: 24 March)

Event Time Altitude Azimuth Distance (km) Brightness Sun altitude
Rises 16:52:07 0° 23° (NNE) 2,922 5.6 -6.3°
Reaches altitude 10° 16:54:42 10° 38° (NE) 2,009 4.7 -6.7°
Maximum altitude 16:58:15 24° 92° (E) 1,312 3.7 -7.2°
Drops below altitude 10° 17:01:46 10° 146° (SSE) 1,995 5.0 -7.7°
Sets 17:04:18 0° 161° (SSE) 2,895 6.0 -8.0°
